Regional Weather Roundup
Issued by NWS

Home | Current Version | Previous Version | Text Only | Print | Product List | Glossary Off
Versions: 1 2 3 4 5 6 7 8 9 10 11 12 13 14 15 16 17 18 19 20 21 22 23 24 25 26 27 28 29 30 31 32 33 34 35 36 37 38 39 40 41 42 43 44 45 46 47 48 49 50

872
ASUS43 KLOT 222109
RWRIL

ILLINOIS REGIONAL WEATHER ROUNDUP
NATIONAL WEATHER SERVICE CHICAGO/ROMEOVILLE IL
400 PM CDT MON MAY 22 2017

NOTE: "FAIR" INDICATES FEW OR NO CLOUDS BELOW 12,000 FEET WITH NO
SIGNIFICANT WEATHER AND/OR OBSTRUCTIONS TO VISIBILITY.

* THESE STATIONS ARE NOT UNDER NWS QUALITY CONTROL. THEY ALSO MAY NOT
  REPORT WEATHER SUCH AS PRECIPITATION OR FOG.

ILZ001-002-007-009-015-016-024-222200-
NORTHWEST ILLINOIS

CITY           SKY/WX    TMP DP  RH WIND       PRES   REMARKS
MOLINE         MOSUNNY   68  53  58 SW14G25   29.91S
STERLING*      CLOUDY    69  54  58 SW17G24   29.91S
SAVANNA*       CLOUDY    68  55  62 SW18G25   29.88S
$$

ILZ003-004-008-010-011-017-018-222200-
NORTH CENTRAL ILLINOIS

CITY           SKY/WX    TMP DP  RH WIND       PRES   REMARKS
ROCKFORD       CLOUDY    70  51  51 SW9       29.90F
FREEPORT*      CLOUDY    67  54  63 SW17G26   29.89F
ROCHELLE*      CLOUDY    69  55  60 SW30G37   29.91S
DE KALB*       LGT RAIN  63  51  66 SW13G31   29.92S
PERU*          CLOUDY    63  54  72 SW13G20   29.95F
$$

ILZ005-006-012>014-019>023-222200-
NORTHEAST ILLINOIS

CITY           SKY/WX    TMP DP  RH WIND       PRES   REMARKS
CHICAGO-OHARE  CLOUDY    72  42  34 SW17      29.90F
CHICAGO-MIDWAY PTSUNNY   74  42  31 SW17G30   29.91F
AURORA         CLOUDY    72  46  39 SW17G28   29.91F
LANSING*       SUNNY     75  49  40 SW18      29.94F
WAUKEGAN       CLOUDY    71  50  47 SW14G21   29.89F
DUPAGE AIRPORT CLOUDY    70  46  42 SW15G26   29.90F
KANKAKEE*      MOSUNNY   76  44  32 SW20G28   29.96F
WHEELING       CLOUDY    70  45  40 SW13G21   29.92F
MORRIS*        SUNNY     73  42  33 SW17G29   29.92F
ROMEOVILLE*    MOSUNNY   73  47  39 SW24G30   29.92F
NORTHERLY ISL    N/A     72  38  29 S13         N/A
$$

LMZ740>746-222200-
SOUTHERN LAKE MICHIGAN

STATION/POSITION SKY/WX   TEMP    WIND        PRES    VSBY  WAVE
                          AIR SEA DIR/SP/G                  HT/PER
                          (F)     (DEG/KT/KT) (MB)    (MI)  (FT/S)
SOUTHERN BUOY              50 45  170/ 12/ 14 1013.9          1/ 3
WILMETTE HARBOR            64 54                N/A           1/ 2
HARRISON CRIB              71     220/ 13/ 17   N/A
BURNHAM HARBOR             72     250/  9/ 18   N/A
CALUMET HARBOR             73     200/ 10/ 19 1012.9F
BURNS HARBOR               71     210/ 14/ 21 1014.2F
MICHIGAN CITY              69     200/ 14/ 16   N/A
MICHIGAN CITY 6N           62 54  230/  6/  8   N/A           1/ 3
ST. JOSEPH                 60 56  190/  2/  4 1014.5          1/ 3
$$

ILZ025>027-034>036-040-047-049-050-058-095>099-222200-
WEST-CENTRAL ILLINOIS

CITY           SKY/WX    TMP DP  RH WIND       PRES   REMARKS
QUINCY         LGT RAIN  60  56  86 W16G22    30.01R FOG
GALESBURG*     CLOUDY    64  56  73 S17         N/A
MACOMB*        LGT RAIN  61  57  87 SW12      30.02R
JACKSONVILLE*  CLOUDY    71  50  46 S13       29.98F
PITTSFIELD*    LGT RAIN  67  55  64 SW8G17    30.00S
$$

ILZ028>032-037-038-041>044-048-051>054-059>061-222200-
CENTRAL ILLINOIS

CITY           SKY/WX    TMP DP  RH WIND       PRES   REMARKS
PONTIAC        CLOUDY    73  42  33 SW15      29.96F
BLOOMINGTON    MOSUNNY   72  45  37 SW20G25   29.98F
DECATUR        SUNNY     71  46  40 SW16G22   30.01F
PEORIA         LGT RAIN  65  55  70 W10       29.98R
LACON*         CLOUDY    65  55  69 SW8       29.95F
LINCOLN*       CLOUDY    73  49  42 S12G18    29.98F
SPRINGFIELD    MOSUNNY   74  50  42 S17G24    29.99F
TAYLORVILLE    SUNNY     70  49  46 SW10      30.01F
$$

ILZ033-039-045-046-055>057-062-063-222200-
EAST-CENTRAL ILLINOIS

CITY           SKY/WX    TMP DP  RH WIND       PRES   REMARKS
CHAMPAIGN      SUNNY     73  44  35 SW18G24   30.01F
RANTOUL*       MOSUNNY   74  49  40 SW15G22   30.00F
MATTOON        SUNNY     71  47  42 S10G18    30.02F
PARIS*         SUNNY     72  49  44 S13G18    30.03F
$$

ILZ079-100>102-222200-
SOUTHWEST ILLINOIS

CITY           SKY/WX    TMP DP  RH WIND       PRES   REMARKS
ALTON          PTSUNNY   73  45  35 S9        30.01F
BELLEVILLE     MOSUNNY   74  49  41 SW8       30.02F
CAHOKIA*       PTSUNNY   76  45  33 S7        30.00F
SPARTA*        SUNNY     73  47  39 SE8       30.03F
$$

ILZ064>066-069>071-074>076-080>082-084>086-088>090-092>094-222200-
SOUTH-CENTRAL ILLINOIS

CITY           SKY/WX    TMP DP  RH WIND       PRES   REMARKS
CARBONDALE     SUNNY     74  48  39 VRB3      30.01F
CAIRO*         SUNNY     74  43  32 CALM      30.01F
EFFINGHAM*     SUNNY     73  47  39 S7        30.04F
MARION         MOSUNNY   75  48  38 S6        30.03F
MT. VERNON       N/A     75  48  38 VRB7      30.02F
CENTRALIA*     SUNNY     73  46  37 CALM      30.02F
SALEM*         SUNNY     74  45  35 S5        30.02F
METROPOLIS*    SUNNY     74  47  39 E5        30.02F
$$

ILZ067-068-072-073-078-083-087-091-222200-
SOUTHEAST ILLINOIS

CITY           SKY/WX    TMP DP  RH WIND       PRES   REMARKS
LAWRENCEVILLE  SUNNY     73  45  36 VRB5      30.03F
FLORA*         SUNNY     74  45  35 SE9       30.03F
FAIRFIELD*     SUNNY     73  46  38 S7        30.02F
HARRISBURG*    SUNNY     74  49  41 S6        30.03F
ROBINSON*      SUNNY     73  42  33 SW8       30.04F
CARMI*         SUNNY     76  46  34 E6        30.02F
$$

ABBREVIATIONS USED IN REMARKS
   TC - TEMPERATURE IN CELSIUS
  WCI - WIND CHILL INDEX
   HX - HEAT INDEX
  VSB - VISIBILITY
$$





USA.gov is the U.S. government's official web portal to all federal, state and local government web resources and services.